588  
ASUS44 KMAF 260710  
RWRMAF  
MIDLAND AREA WEATHER ROUNDUP  
NATIONAL WEATHER SERVICE MIDLAND TX  
200 AM CDT THU APR 26 2018  
   
..IN SOUTHWEST TEXAS AND SOUTHEAST NEW MEXICO
 
 
 
CITY SKY/WX TMP DP RH WIND PRES REMARKS
 
ALPINE CLEAR 40 37 88 SW6 30.23F WCI 36  
ANDREWS FAIR 47 39 73 SW9 30.14F  
ARTESIA CLEAR 48 36 61 S8 30.12F  
BIG SPRING CLEAR 45 39 81 S6 30.16S  
CARLSBAD CLEAR 48 37 65 S8 30.11F  
DRYDEN N/A 50 41 71 W5 30.12F  
FORT STOCKTON CLEAR 46 39 76 SW9 30.15F  
GUAD PASS CLEAR 48 37 65 NE30 30.14F WCI 39  
HOBBS CLEAR 45 36 70 SW6 30.14S  
LAMESA FAIR 45 36 70 S8 30.14F  
MARFA CLEAR 39 36 89 NW6 30.21F WCI 35  
MIDLAND AIRPK N/A 51 40 68 SW6 30.15F  
MIDLAND INTL CLEAR 50 40 68 SW8 30.14F  
ODESSA CLEAR 48 40 73 SW9 30.15F  
PECOS CLEAR 43 37 79 CALM 30.16S  
PRESIDIO FAIR 57 42 57 NE10G20 30.17S  
SEMINOLE CLEAR 47 38 70 SW9 30.14F  
SNYDER CLEAR 44 42 95 S7 30.13F WCI 39  
WINK CLEAR 46 39 76 CALM 30.14F  

   
..OTHER STATIONS IN TEXAS
 
 
 
CITY SKY/WX TMP DP RH WIND PRES REMARKS
 
ABILENE CLEAR 43 43 100 SW5 30.10F  
AMARILLO CLEAR 45 32 60 S12 30.09F WCI 39  
AUSTIN CLOUDY 56 50 80 N8 30.08F  
BROWNSVILLE FAIR 68 65 90 NE6 29.99R  
CORPUS CHRISTI MOCLDY 64 62 93 N15G21 30.03F  
DALLAS FTW CLEAR 50 46 86 NW9 30.05F  
DEL RIO CLOUDY 61 49 64 NW7 30.10F  
EL PASO PTCLDY 60 40 47 S8 30.10S  
HOUSTON INT FAIR 61 54 77 N12 30.02F  
LUBBOCK CLEAR 51 36 56 S10 30.11S  
SAN ANGELO CLEAR 42 41 96 W6 30.12F WCI 38  
SAN ANTONIO CLOUDY 57 52 83 N7 30.08F  
WACO CLEAR 47 45 93 NW6 30.08F  
WICHITA FALLS PTCLDY 38 38 100 W3 30.03F FOG  

   
..OTHER LOCATIONS IN NEW MEXICO
 
 
 
CITY SKY/WX TMP DP RH WIND PRES REMARKS
 
ALAMOGORDO CLEAR 54 36 50 CALM 30.10R  
ALBUQUERQUE CLEAR 58 30 34 SW6 30.10R  
CANNON AFB CLEAR 44 30 56 S5 30.12F  
CLOVIS CLEAR 40 27 59 SW7 30.12F WCI 35  
HOLLOMAN AFB CLEAR 57 37 47 S8 30.11S  
ROSWELL CLEAR 49 34 56 SW5 30.10F  
RUIDOSO PTCLDY 43 32 65 CALM 30.21F  
SANTA FE CLEAR 49 31 49 SE7 30.14F  
TRUTH OR CONSE CLEAR 65 34 31 S12 30.09S  
TUCUMCARI CLEAR 50 31 48 SW7 30.06F  

 
 
 
CLICK HERE TO GO TO PREVIOUS BULLETINS.

The Nexlab TX Page
The Nexlab NM Page Main Text Page